OBJECT E

基本信息
目录编号:
63523
目录名称:
OBJECT E
国际标识:
2021-035E
轨道中心:
EARTH
物体状态:
在轨
发射日期:
2021-04-29 UTC
国别:
中国 (CN)
轨道信息
数据来源: 国际轨道数据
星历时间: 2026-09-02T06:21:01+0800
半长轴: 6734.065km
偏心率: 0.0007079
轨道倾角: 41.454°
近地点辐角: 201.920°
升交点赤经: 173.218°
平近点角: 158.134°
近地点: 351.16km
远地点: 360.696km
周期: 91.659分钟
每日圈数: 15.710386
详细信息
发射场:
WSC
轨道高度:
LEO
数据来源:
AOE Integration Group
参考系:
TEME
时间系统:
UTC
历元类型:
SGP4
2D轨道图
3D轨道图
轨道高度分析图
轨道倾角分析图
轨道综合分析图
查看轨道综合分析图